Powrót do katalogu

CZ-3B DEB

LostGTO
NORAD 39336·DEBRIS·🇨🇳 China

Wystrzelony Sep 4, 2010 z Xichang Satellite Launch Center

Loading…

TLE

NieaktualneSource: Space-Track

Epoka: Mar 14, 2026, 01:18 UTC

1 39336U 10042H   26073.05428969 -.00000256  00000-0  46989-2 0  9994
2 39336  24.6290 333.3888 7282309 210.7794  71.3111  2.02825493    16

Śledź CZ-3B DEB w czasie rzeczywistym z AllMySat

Download on the App Store